When you browse on this site, cookies collect data to enhance your experience and personalize the content and advertising you see.
Visit our Privacy Policy to learn more. By continuing to use the site, you agree to this use of cookies and data.
EN

Hourly Weather Santa Bárbara

Today, 7 August, Friday

Time Temperature Precipitation Wind Pressure Humidity
00:00 +22°C° 0 mm 0 mps 721 mmHg 98%
01:00 +22°C° 0.7 mm 0 mps 721 mmHg 98%
02:00 +22°C° 0.7 mm 0 mps 721 mmHg 98%
03:00 +22°C° 0.7 mm 0 mps 720 mmHg 98%
04:00 +22°C° 0.1 mm 0 mps 720 mmHg 98%
05:00 +22°C° 0.1 mm 0 mps 720 mmHg 98%
06:00 +22°C° 0.1 mm 0 mps 721 mmHg 97%
07:00 +23°C° 0 mm 0 mps 721 mmHg 92%
08:00 +25°C° 0 mm 0 mps 722 mmHg 86%
09:00 +26°C° 0 mm 0 mps 722 mmHg 81%
10:00 +27°C° 0.7 mm 0 mps 722 mmHg 80%
11:00 +29°C° 0.7 mm 1 mps 722 mmHg 79%
12:00 +30°C° 0.7 mm 1 mps 722 mmHg 79%
13:00 +30°C° 1.5 mm 1 mps 721 mmHg 82%
14:00 +29°C° 1.5 mm 1 mps 721 mmHg 84%
15:00 +29°C° 1.5 mm 1 mps 720 mmHg 87%
16:00 +28°C° 1.1 mm 1 mps 720 mmHg 89%
17:00 +25°C° 1.1 mm 0 mps 721 mmHg 92%
18:00 +24°C° 1.1 mm 0 mps 721 mmHg 95%
19:00 +23°C° 0.7 mm 0 mps 721 mmHg 95%
20:00 +23°C° 0.7 mm 0 mps 722 mmHg 96%
21:00 +22°C° 0.7 mm 0 mps 722 mmHg 96%
22:00 +22°C° 0 mm 0 mps 722 mmHg 96%
23:00 +21°C° 0 mm 0 mps 722 mmHg 96%

Tomorrow, 8 August, Saturday

Time Temperature Precipitation Wind Pressure Humidity
00:00 +21°C° 0 mm 0 mps 722 mmHg 96%
01:00 +21°C° 0 mm 0 mps 722 mmHg 96%
02:00 +21°C° 0 mm 0 mps 721 mmHg 96%
03:00 +21°C° 0 mm 0 mps 721 mmHg 97%
04:00 +20°C° 0 mm 0 mps 721 mmHg 96%
05:00 +20°C° 0 mm 0 mps 721 mmHg 96%
06:00 +20°C° 0 mm 0 mps 722 mmHg 96%
07:00 +23°C° 0 mm 0 mps 722 mmHg 87%
08:00 +25°C° 0 mm 0 mps 723 mmHg 77%
09:00 +27°C° 0 mm 0 mps 723 mmHg 67%
10:00 +29°C° 0.1 mm 0 mps 723 mmHg 63%
11:00 +32°C° 0.1 mm 1 mps 723 mmHg 60%
12:00 +33°C° 0.1 mm 1 mps 723 mmHg 56%
13:00 +32°C° 0.9 mm 1 mps 722 mmHg 63%
14:00 +31°C° 0.9 mm 1 mps 721 mmHg 70%
15:00 +30°C° 0.9 mm 1 mps 721 mmHg 78%
16:00 +29°C° 1.6 mm 1 mps 721 mmHg 84%
17:00 +28°C° 1.6 mm 1 mps 721 mmHg 90%
18:00 +26°C° 1.6 mm 1 mps 721 mmHg 96%
19:00 +24°C° 0.3 mm 0 mps 721 mmHg 96%
20:00 +23°C° 0.3 mm 0 mps 722 mmHg 97%
21:00 +23°C° 0.3 mm 0 mps 723 mmHg 98%
22:00 +22°C° 0 mm 0 mps 722 mmHg 98%
23:00 +22°C° 0 mm 0 mps 722 mmHg 98%

Day after tomorrow, 9 August, Sunday

Time Temperature Precipitation Wind Pressure Humidity
00:00 +22°C° 0 mm 0 mps 722 mmHg 98%
01:00 +22°C° 0 mm 0 mps 722 mmHg 98%
02:00 +21°C° 0 mm 0 mps 722 mmHg 98%
03:00 +21°C° 0 mm 0 mps 721 mmHg 98%
04:00 +21°C° 0 mm 0 mps 721 mmHg 98%
05:00 +21°C° 0 mm 0 mps 722 mmHg 98%
06:00 +21°C° 0 mm 0 mps 722 mmHg 98%
07:00 +23°C° 0 mm 0 mps 722 mmHg 91%
08:00 +25°C° 0 mm 0 mps 723 mmHg 83%
09:00 +28°C° 0 mm 0 mps 723 mmHg 76%
10:00 +28°C° 0.7 mm 0 mps 723 mmHg 76%
11:00 +31°C° 0.7 mm 1 mps 722 mmHg 75%
12:00 +31°C° 0.7 mm 1 mps 722 mmHg 75%
13:00 +30°C° 2.1 mm 1 mps 721 mmHg 80%
14:00 +30°C° 2.1 mm 1 mps 721 mmHg 85%
15:00 +29°C° 2.1 mm 1 mps 720 mmHg 90%
16:00 +28°C° 2.2 mm 1 mps 720 mmHg 92%
17:00 +26°C° 2.2 mm 1 mps 720 mmHg 95%
18:00 +23°C° 2.2 mm 0 mps 721 mmHg 97%
19:00 +23°C° 0.4 mm 0 mps 721 mmHg 97%
20:00 +23°C° 0.4 mm 0 mps 721 mmHg 97%
21:00 +22°C° 0.4 mm 0 mps 722 mmHg 97%
22:00 +22°C° 0 mm 0 mps 722 mmHg 97%
23:00 +22°C° 0 mm 0 mps 722 mmHg 97%

10 August, Monday

Time Temperature Precipitation Wind Pressure Humidity
00:00 +22°C° 0 mm 0 mps 722 mmHg 97%
01:00 +22°C° 0.1 mm 0 mps 721 mmHg 97%
02:00 +22°C° 0.1 mm 0 mps 721 mmHg 97%
03:00 +22°C° 0.1 mm 0 mps 720 mmHg 98%
04:00 +22°C° 0 mm 0 mps 721 mmHg 98%
05:00 +22°C° 0 mm 0 mps 721 mmHg 98%
06:00 +22°C° 0 mm 0 mps 721 mmHg 98%
07:00 +23°C° 0.1 mm 0 mps 721 mmHg 95%
08:00 +24°C° 0.1 mm 0 mps 722 mmHg 93%
09:00 +25°C° 0.1 mm 0 mps 722 mmHg 90%
10:00 +25°C° 0.8 mm 0 mps 722 mmHg 89%
11:00 +26°C° 0.8 mm 0 mps 722 mmHg 89%
12:00 +28°C° 0.8 mm 1 mps 722 mmHg 88%
13:00 +28°C° 0.6 mm 1 mps 721 mmHg 88%
14:00 +28°C° 0.6 mm 1 mps 720 mmHg 88%
15:00 +27°C° 0.6 mm 1 mps 720 mmHg 88%
16:00 +27°C° 0.3 mm 1 mps 720 mmHg 90%
17:00 +24°C° 0.3 mm 0 mps 720 mmHg 93%
18:00 +23°C° 0.3 mm 0 mps 720 mmHg 96%
19:00 +23°C° 0.3 mm 0 mps 721 mmHg 96%
20:00 +22°C° 0.3 mm 0 mps 721 mmHg 97%
21:00 +22°C° 0.3 mm 0 mps 722 mmHg 97%
22:00 +22°C° 0 mm 0 mps 721 mmHg 98%
23:00 +21°C° 0 mm 0 mps 721 mmHg 98%

11 August, Tuesday

Time Temperature Precipitation Wind Pressure Humidity
00:00 +21°C° 0 mm 0 mps 721 mmHg 98%
01:00 +21°C° 0 mm 0 mps 720 mmHg 98%
02:00 +21°C° 0 mm 0 mps 720 mmHg 98%
03:00 +21°C° 0 mm 0 mps 719 mmHg 98%
04:00 +21°C° 0 mm 0 mps 720 mmHg 98%
05:00 +21°C° 0 mm 0 mps 720 mmHg 98%
06:00 +20°C° 0 mm 0 mps 720 mmHg 98%
07:00 +22°C° 0 mm 0 mps 720 mmHg 91%
08:00 +24°C° 0 mm 0 mps 721 mmHg 85%
09:00 +26°C° 0 mm 0 mps 722 mmHg 78%
10:00 +30°C° 0.1 mm 1 mps 721 mmHg 71%
11:00 +31°C° 0.1 mm 1 mps 721 mmHg 63%
12:00 +32°C° 0.1 mm 2 mps 721 mmHg 55%
13:00 +31°C° 0.7 mm 2 mps 720 mmHg 65%
14:00 +30°C° 0.7 mm 2 mps 719 mmHg 76%
15:00 +29°C° 0.7 mm 2 mps 719 mmHg 86%
16:00 +28°C° 1.4 mm 1 mps 719 mmHg 89%
17:00 +26°C° 1.4 mm 1 mps 719 mmHg 93%
18:00 +25°C° 1.4 mm 1 mps 719 mmHg 96%
19:00 +25°C° 0.4 mm 1 mps 720 mmHg 97%
20:00 +24°C° 0.4 mm 1 mps 720 mmHg 97%
21:00 +21°C° 0.4 mm 0 mps 721 mmHg 98%
22:00 +21°C° 0 mm 0 mps 721 mmHg 98%
23:00 +21°C° 0 mm 0 mps 720 mmHg 98%

12 August, Wednesday

Time Temperature Precipitation Wind Pressure Humidity
00:00 +21°C° 0 mm 0 mps 720 mmHg 99%
01:00 +21°C° 0 mm 0 mps 720 mmHg 98%
02:00 +21°C° 0 mm 0 mps 720 mmHg 98%
03:00 +21°C° 0 mm 0 mps 719 mmHg 98%
04:00 +21°C° 0 mm 0 mps 719 mmHg 98%
05:00 +21°C° 0 mm 0 mps 720 mmHg 98%
06:00 +21°C° 0 mm 0 mps 720 mmHg 98%
07:00 +23°C° 0 mm 0 mps 720 mmHg 90%
08:00 +24°C° 0 mm 0 mps 721 mmHg 82%
09:00 +26°C° 0 mm 0 mps 722 mmHg 75%
10:00 +29°C° 0 mm 1 mps 721 mmHg 67%
11:00 +31°C° 0 mm 1 mps 721 mmHg 59%
12:00 +32°C° 0 mm 2 mps 721 mmHg 51%
13:00 +30°C° 0.2 mm 1 mps 720 mmHg 62%
14:00 +28°C° 0.2 mm 1 mps 720 mmHg 73%
15:00 +26°C° 0.2 mm 1 mps 719 mmHg 84%
16:00 +23°C° 0.5 mm 0 mps 719 mmHg 88%
17:00 +23°C° 0.5 mm 0 mps 719 mmHg 92%
18:00 +22°C° 0.5 mm 0 mps 720 mmHg 97%
19:00 +22°C° 0 mm 0 mps 720 mmHg 97%
20:00 +21°C° 0 mm 0 mps 720 mmHg 97%
21:00 +21°C° 0 mm 0 mps 721 mmHg 97%
22:00 +21°C° 0 mm 0 mps 721 mmHg 97%
23:00 +21°C° 0 mm 0 mps 720 mmHg 97%
Show more